FW5474 Midway GA US current weather conditions

sailwx.info

Wind from 220 at 0 knots gusting 6

Air temperature 18.3° C
Dewpoint -38.8° C

Last reported at 2020-Feb-26 00:10 UTC.
Time now 2020-Feb-26 00:53 UTC

Location: N 31°47' W 081°26'.
View on Google Maps.

See reports from other nearby stations

  
Tides and Currents Weather Stations Pressure Air Temp Water Temp Dewpoint Dewpoint Depression Visibility Wind Speed Wind Dir Waves Ship Positions
date/time (UTC)wind fromknots sea level pressurealtimeterstation pressurevisibilityair tempwater tempwave heightnotes
2020-Feb-26 00:10 220 0 gusting 6 18.3
2020-Feb-26 00:05 200 0 gusting 6 18.3
2020-Feb-25 23:56 176 0 gusting 4 18.3
2020-Feb-25 23:46 160 18.3
2020-Feb-25 23:40 154 18.3
2020-Feb-25 23:36 169 0 gusting 6 18.3
2020-Feb-25 23:31 187 1 gusting 6 18.3
2020-Feb-25 23:25 200 0 gusting 6 18.3
2020-Feb-25 23:20 204 1 gusting 6 18.9
2020-Feb-25 23:17 201 1 gusting 6 18.9
2020-Feb-25 23:10 191 0 gusting 6 18.9
2020-Feb-25 23:06 185 0 gusting 6 18.9
2020-Feb-25 23:01 154 0 gusting 4 18.9
2020-Feb-25 22:55 167 1 gusting 4 18.9
2020-Feb-25 22:50 187 0 gusting 3 19.4
2020-Feb-25 22:46 192 19.4
2020-Feb-25 22:40 152 0 gusting 3 19.4
2020-Feb-25 22:35 197 0 gusting 3 19.4
2020-Feb-25 22:30 210 0 gusting 3 19.4
2020-Feb-25 22:25 169 19.4
2020-Feb-25 22:20 159 0 gusting 3 19.4
2020-Feb-25 22:15 160 0 gusting 3 20.0
2020-Feb-25 22:10 181 20.0
2020-Feb-25 22:05 216 20.0
2020-Feb-25 22:00 200 20.0
2020-Feb-25 21:55 186 20.0
2020-Feb-25 21:50 180 0 gusting 4 20.0
2020-Feb-25 21:45 171 20.0
2020-Feb-25 21:40 171 20.0
2020-Feb-25 21:35 238 20.0
2020-Feb-25 21:25 174 1 gusting 5 20.6
2020-Feb-25 21:15 185 0 gusting 5 20.6
2020-Feb-25 21:10 183 0 gusting 5 20.6
2020-Feb-25 20:46 227 2 gusting 8 20.6
2020-Feb-25 20:40 169 4 gusting 8 21.1
2020-Feb-25 20:35 200 1 gusting 9 21.1
2020-Feb-25 20:30 196 3 gusting 9 21.1
2020-Feb-25 20:25 212 3 gusting 11 21.1
2020-Feb-25 20:21 190 5 gusting 11 21.7
2020-Feb-25 20:16 200 0 gusting 8 21.7
2020-Feb-25 20:10 230 0 gusting 9 21.7
2020-Feb-25 20:05 186 2 gusting 9 21.7
2020-Feb-25 20:01 259 1 gusting 7 21.7
2020-Feb-25 19:55 205 2 gusting 7 21.7
2020-Feb-25 19:50 226 0 gusting 6 21.7
2020-Feb-25 19:46 210 1 gusting 5 21.7
2020-Feb-25 19:40 202 0 gusting 4 21.7
2020-Feb-25 19:35 202 21.7
2020-Feb-25 19:30 222 1 gusting 9 21.7
2020-Feb-25 19:25 21.7
2020-Feb-25 19:20 347 1 gusting 8 21.1
2020-Feb-25 19:15 314 4 gusting 9 21.1
2020-Feb-25 19:10 355 1 gusting 9 21.1
2020-Feb-25 19:05 296 5 gusting 9 21.1
2020-Feb-25 19:00 341 2 gusting 13 21.1
2020-Feb-25 18:55 309 5 gusting 13 21.1
2020-Feb-25 18:50 319 3 gusting 9 21.1
2020-Feb-25 18:46 322 0 gusting 8 21.1
2020-Feb-25 18:40 296 3 gusting 8 20.6
2020-Feb-25 18:30 355 6 gusting 12 20.6
2020-Feb-25 18:25 060 4 gusting 13 21.1
2020-Feb-25 18:20 331 3 gusting 13 21.1
2020-Feb-25 18:15 317 4 gusting 14 21.1
2020-Feb-25 18:10 326 4 gusting 14 21.1
2020-Feb-25 18:05 027 3 gusting 10 20.6
2020-Feb-25 18:00 312 0 gusting 10 20.6
2020-Feb-25 17:55 263 4 gusting 10 20.6
2020-Feb-25 17:50 360 4 gusting 12 20.6
2020-Feb-25 17:45 154 4 gusting 12 20.6
2020-Feb-25 17:35 202 5 gusting 11 21.1
2020-Feb-25 17:31 226 3 gusting 10 21.1
2020-Feb-25 17:25 281 3 gusting 9 21.1
2020-Feb-25 17:20 221 4 gusting 9 20.6
2020-Feb-25 17:16 197 2 gusting 8 20.6
2020-Feb-25 17:10 158 3 gusting 9 20.6
2020-Feb-25 17:00 155 5 gusting 12 20.0
2020-Feb-25 16:55 158 5 gusting 12 20.0
2020-Feb-25 16:50 143 1 gusting 7 19.4
2020-Feb-25 16:40 193 1 gusting 8 18.9
2020-Feb-25 16:30 118 1 gusting 8 18.9
2020-Feb-25 16:25 201 2 gusting 8 18.9
2020-Feb-25 16:20 177 1 gusting 8 18.3
2020-Feb-25 16:15 154 0 gusting 5 18.3
2020-Feb-25 16:10 175 17.8
2020-Feb-25 16:01 141 0 gusting 6 17.8
2020-Feb-25 15:55 177 17.8
2020-Feb-25 15:50 150 17.8
2020-Feb-25 15:47 206 0 gusting 4 17.2
2020-Feb-25 15:41 150 2 gusting 8 17.2
2020-Feb-25 15:35 152 2 gusting 8 17.2
2020-Feb-25 15:31 183 2 gusting 8 17.2
2020-Feb-25 15:25 164 2 gusting 8 16.7
2020-Feb-25 15:20 187 2 gusting 8 16.7
2020-Feb-25 15:16 139 2 gusting 8 16.7
2020-Feb-25 15:10 165 2 gusting 8 16.7
2020-Feb-25 15:01 204 1 gusting 8 16.7
2020-Feb-25 14:56 073 1 gusting 8 16.7
2020-Feb-25 14:50 060 1 gusting 8 16.7
2020-Feb-25 14:46 062 1 gusting 8 16.7
2020-Feb-25 14:40 042 1 gusting 8 16.7
2020-Feb-25 14:35 073 1 gusting 8 16.7
2020-Feb-25 14:31 170 1 gusting 6 16.7
2020-Feb-25 14:25 159 1 gusting 6 16.1
2020-Feb-25 14:20 186 1 gusting 6 16.1
2020-Feb-25 14:16 160 1 gusting 6 16.1
2020-Feb-25 14:10 058 0 gusting 6 16.1
2020-Feb-25 14:01 053 0 gusting 6 16.1
2020-Feb-25 13:55 053 0 gusting 5 16.1
2020-Feb-25 13:50 125 0 gusting 5 16.1
2020-Feb-25 13:45 156 0 gusting 4 15.6
2020-Feb-25 13:40 162 0 gusting 4 15.6
2020-Feb-25 13:35 130 0 gusting 4 15.6
2020-Feb-25 13:30 159 0 gusting 4 15.6
2020-Feb-25 13:25 187 0 gusting 4 15.6
2020-Feb-25 13:20 167 0 gusting 4 15.6
2020-Feb-25 13:10 049 0 gusting 4 15.6
2020-Feb-25 13:00 162 0 gusting 4 15.6
2020-Feb-25 12:55 188 0 gusting 4 15.6
2020-Feb-25 12:50 202 0 gusting 4 15.6
2020-Feb-25 12:40 058 0 gusting 7 15.6
2020-Feb-25 12:35 190 0 gusting 7 15.6
2020-Feb-25 12:25 172 0 gusting 7 15.6
2020-Feb-25 12:20 158 0 gusting 7 15.6
2020-Feb-25 12:15 151 0 gusting 7 15.6
2020-Feb-25 12:02 135 0 gusting 6 15.6
2020-Feb-25 11:56 166 0 gusting 6 15.6
2020-Feb-25 11:51 008 0 gusting 6 15.6
2020-Feb-25 11:47 016 0 gusting 6 15.6
2020-Feb-25 11:40 150 0 gusting 6 15.6
2020-Feb-25 11:35 153 0 gusting 6 15.6
2020-Feb-25 11:31 122 0 gusting 6 15.6
2020-Feb-25 11:25 148 0 gusting 6 15.6
2020-Feb-25 11:20 160 0 gusting 6 15.6
2020-Feb-25 11:18 147 0 gusting 6 15.6
2020-Feb-25 11:10 139 0 gusting 6 15.6
2020-Feb-25 11:01 144 0 gusting 6 15.6
2020-Feb-25 10:55 139 0 gusting 6 15.6
2020-Feb-25 10:50 139 0 gusting 6 15.6
2020-Feb-25 10:46 033 0 gusting 6 15.6
2020-Feb-25 10:40 143 0 gusting 6 15.6
2020-Feb-25 10:35 249 0 gusting 6 15.6
2020-Feb-25 10:31 249 0 gusting 6 15.6
2020-Feb-25 10:25 249 0 gusting 6 15.6
2020-Feb-25 10:20 249 0 gusting 6 15.6
2020-Feb-25 10:16 117 0 gusting 6 15.0
2020-Feb-25 10:10 137 0 gusting 7 15.6
2020-Feb-25 10:00 249 0 gusting 7 15.6
2020-Feb-25 09:55 248 0 gusting 7 15.6
2020-Feb-25 09:50 250 0 gusting 7 15.6
2020-Feb-25 09:46 250 0 gusting 7 15.0
2020-Feb-25 09:40 157 0 gusting 7 15.0
2020-Feb-25 09:35 240 0 gusting 7 15.0
2020-Feb-25 09:30 127 0 gusting 7 15.0
2020-Feb-25 09:25 167 0 gusting 4 15.0
2020-Feb-25 09:20 054 0 gusting 4 15.0
2020-Feb-25 09:10 166 0 gusting 3 15.0
2020-Feb-25 09:01 283 0 gusting 3 15.0
2020-Feb-25 08:50 193 0 gusting 3 15.0
2020-Feb-25 08:45 191 0 gusting 2 15.0
2020-Feb-25 08:40 283 0 15.0
2020-Feb-25 08:35 283 0 15.0
2020-Feb-25 08:30 283 0 15.0
2020-Feb-25 08:25 283 0 gusting 5 15.0
2020-Feb-25 08:20 284 0 gusting 5 15.0
2020-Feb-25 08:11 178 0 gusting 5 15.0
2020-Feb-25 08:01 283 0 gusting 5 15.0
2020-Feb-25 07:55 191 0 gusting 5 15.0
2020-Feb-25 07:50 179 0 gusting 4 15.0
2020-Feb-25 07:47 173 0 gusting 4 15.6
2020-Feb-25 07:40 174 0 gusting 3 15.6
2020-Feb-25 07:36 269 0 gusting 0 15.6
2020-Feb-25 07:30 269 0 gusting 0 15.6
2020-Feb-25 07:25 269 0 gusting 0 15.6
2020-Feb-25 07:20 173 0 gusting 5 15.6
2020-Feb-25 07:16 154 15.6
2020-Feb-25 07:10 317 0 gusting 5 15.6
2020-Feb-25 07:01 154 0 gusting 7 15.6
2020-Feb-25 06:55 210 15.6
2020-Feb-25 06:50 210 15.6
2020-Feb-25 06:45 152 16.1
2020-Feb-25 06:40 199 16.1
2020-Feb-25 06:35 199 0 gusting 1 16.1
2020-Feb-25 06:31 199 0 gusting 1 16.1
2020-Feb-25 06:25 163 0 gusting 1 16.1
2020-Feb-25 06:20 161 0 gusting 3 16.1
2020-Feb-25 06:16 160 0 gusting 3 16.1
2020-Feb-25 06:10 160 0 gusting 3 16.1
2020-Feb-25 06:00 160 0 gusting 3 17.2
2020-Feb-25 05:55 058 0 gusting 3 17.2
2020-Feb-25 05:50 033 0 gusting 3 17.2
2020-Feb-25 05:45 049 0 gusting 3 17.2
2020-Feb-25 05:40 235 0 gusting 2 17.2
2020-Feb-25 05:35 239 0 gusting 2 17.2
2020-Feb-25 05:31 143 0 gusting 2 17.2
2020-Feb-25 05:25 008 0 gusting 2 17.2
2020-Feb-25 05:20 141 0 17.2
2020-Feb-25 05:00 141 0 gusting 8 17.2
2020-Feb-25 04:55 141 0 gusting 8 17.2
2020-Feb-25 04:50 141 0 gusting 8 17.2
2020-Feb-25 04:45 141 0 gusting 8 17.2
2020-Feb-25 04:40 066 0 gusting 8 17.2
2020-Feb-25 04:35 141 0 gusting 8 17.2
2020-Feb-25 04:30 141 0 gusting 8 17.2
2020-Feb-25 04:25 141 0 gusting 8 17.2
2020-Feb-25 04:16 141 0 gusting 8 17.2
2020-Feb-25 04:10 141 1 gusting 8 17.2
2020-Feb-25 04:02 141 1 gusting 8 17.2
2020-Feb-25 03:56 044 1 gusting 8 17.2
2020-Feb-25 03:50 139 1 gusting 8 17.2
2020-Feb-25 03:46 162 1 gusting 8 17.8
2020-Feb-25 03:41 052 1 gusting 8 17.8
2020-Feb-25 03:35 028 1 gusting 6 17.8
2020-Feb-25 03:30 170 1 gusting 6 17.2
2020-Feb-25 03:25 156 1 gusting 6 17.2
2020-Feb-25 03:20 147 1 gusting 6 17.2
2020-Feb-25 03:16 055 1 gusting 6 17.2
2020-Feb-25 03:10 123 1 gusting 6 17.2
2020-Feb-25 03:00 033 1 gusting 6 17.2
2020-Feb-25 02:55 143 1 gusting 6 17.2
2020-Feb-25 02:50 143 1 gusting 6 17.2
2020-Feb-25 02:46 171 1 gusting 12 17.2
2020-Feb-25 02:40 162 1 gusting 12 17.2
2020-Feb-25 02:35 149 1 gusting 12 17.2
2020-Feb-25 02:30 174 1 gusting 12 17.2
2020-Feb-25 02:25 012 1 gusting 12 17.2
2020-Feb-25 02:20 166 1 gusting 12 17.2
2020-Feb-25 02:16 168 1 gusting 12 17.2
2020-Feb-25 02:10 141 1 gusting 9 17.2
2020-Feb-25 02:01 035 1 gusting 9 17.2
2020-Feb-25 01:55 118 1 gusting 9 17.2
2020-Feb-25 01:50 131 1 gusting 9 17.2
2020-Feb-25 01:45 018 1 gusting 9 17.2
2020-Feb-25 01:40 136 1 gusting 9 17.2
2020-Feb-25 01:35 100 1 gusting 9 17.2
2020-Feb-25 01:32 145 1 gusting 9 17.2
2020-Feb-25 01:25 023 1 gusting 9 17.2
2020-Feb-25 01:20 139 1 gusting 4 17.2
2020-Feb-25 01:10 145 1 gusting 3 17.2
2020-Feb-25 01:00 106 1 gusting 3 17.2
2020-Feb-25 00:55 105 1 gusting 3 17.2
2020-Feb-25 00:50 105 1 gusting 3 17.2
2020-Feb-25 00:45 103 1 gusting 3 17.2
2020-Feb-25 00:40 098 1 gusting 3 17.8
2020-Feb-25 00:35 010 1 gusting 7 17.8
2020-Feb-25 00:30 125 1 gusting 7 17.2
2020-Feb-25 00:25 360 2 gusting 7 17.8
2020-Feb-25 00:16 021 2 gusting 7 17.8
2020-Feb-25 00:10 012 2 gusting 7 17.8
2020-Feb-25 00:05 135 2 gusting 7 17.8
2020-Feb-24 23:55 108 2 gusting 7 18.3
2020-Feb-24 23:50 125 2 gusting 7 18.3
2020-Feb-24 23:47 120 2 gusting 7 18.3
2020-Feb-24 23:40 120 2 gusting 7 18.9
2020-Feb-24 23:35 012 2 gusting 7 18.9
2020-Feb-24 23:32 135 2 gusting 7 18.9
2020-Feb-24 23:25 120 2 gusting 7 18.9
2020-Feb-24 23:20 033 2 gusting 7 19.4
2020-Feb-24 23:15 128 2 gusting 7 19.4
2020-Feb-24 23:05 098 2 gusting 7 20.0
2020-Feb-24 22:55 102 2 gusting 7 20.6
2020-Feb-24 22:50 135 2 gusting 7 20.6
2020-Feb-24 22:46 152 2 gusting 7 21.1
2020-Feb-24 22:35 152 2 gusting 7 21.1
2020-Feb-24 22:31 107 0 gusting 8 21.1
2020-Feb-24 22:25 154 1 gusting 8 21.1
2020-Feb-24 22:20 099 2 gusting 6 21.7
2020-Feb-24 22:15 113 2 gusting 7 21.7
2020-Feb-24 22:10 137 0 gusting 3 21.7
2020-Feb-24 22:05 103 0 gusting 3 21.7
2020-Feb-24 21:55 120 21.7
2020-Feb-24 21:50 112 21.7
2020-Feb-24 21:46 161 1 gusting 6 21.7
2020-Feb-24 21:40 170 1 gusting 4 21.7
2020-Feb-24 21:30 161 0 gusting 8 22.2
2020-Feb-24 21:25 170 2 gusting 7 22.2
2020-Feb-24 21:20 157 2 gusting 7 22.2
2020-Feb-24 21:10 114 0 gusting 8 22.2
2020-Feb-24 21:05 156 2 gusting 9 22.2
2020-Feb-24 20:55 132 3 gusting 8 22.2
2020-Feb-24 20:50 165 4 gusting 8 22.8
2020-Feb-24 20:45 144 3 gusting 10 22.8
2020-Feb-24 20:40 125 3 gusting 10 22.8
2020-Feb-24 20:35 200 2 gusting 10 22.8
2020-Feb-24 20:30 128 3 gusting 8 22.8
2020-Feb-24 20:21 114 0 gusting 6 22.8
2020-Feb-24 20:17 139 22.8
2020-Feb-24 20:10 179 0 gusting 9 22.8
2020-Feb-24 20:06 137 3 gusting 9 22.2
2020-Feb-24 19:55 203 0 gusting 9 22.2
2020-Feb-24 19:50 176 3 gusting 9 22.2
2020-Feb-24 19:46 218 2 gusting 6 22.2
2020-Feb-24 19:40 184 1 gusting 9 22.2
2020-Feb-24 19:35 129 3 gusting 9 21.7
2020-Feb-24 19:31 114 5 gusting 9 21.7
2020-Feb-24 19:26 208 2 gusting 7 21.7
2020-Feb-24 19:20 218 1 gusting 8 21.7
2020-Feb-24 19:16 180 2 gusting 8 21.7
2020-Feb-24 19:10 208 0 gusting 5 21.1
2020-Feb-24 19:05 172 0 gusting 5 21.7
2020-Feb-24 18:55 200 0 gusting 6 21.1
2020-Feb-24 18:50 111 1 gusting 6 21.1
2020-Feb-24 18:46 124 0 gusting 8 20.6
2020-Feb-24 18:40 213 1 gusting 8 20.6
2020-Feb-24 18:35 150 4 gusting 8 20.6
2020-Feb-24 18:05 195 3 gusting 8 20.0
2020-Feb-24 17:55 042 6 gusting 9 19.4
2020-Feb-24 17:50 053 3 gusting 7 18.9
2020-Feb-24 17:45 061 6 gusting 8 18.9
2020-Feb-24 17:40 073 5 gusting 8 18.9
2020-Feb-24 17:35 092 1 gusting 11 18.9
2020-Feb-24 17:25 063 4 gusting 9 18.3
2020-Feb-24 17:15 061 3 gusting 10 18.3
2020-Feb-24 17:10 070 6 gusting 10 18.3
2020-Feb-24 17:05 097 1 gusting 6 17.8
2020-Feb-24 16:55 114 1 gusting 8 17.8
2020-Feb-24 16:50 085 5 gusting 10 17.2
2020-Feb-24 16:45 060 6 gusting 10 17.2
2020-Feb-24 16:40 066 6 gusting 10 17.2
2020-Feb-24 16:32 065 6 gusting 9 16.7
2020-Feb-24 16:25 064 5 gusting 9 16.7
2020-Feb-24 16:20 047 3 gusting 10 16.7
2020-Feb-24 16:16 069 6 gusting 10 16.7
2020-Feb-24 16:10 066 4 gusting 7 16.7
2020-Feb-24 16:06 149 16.7
2020-Feb-24 15:55 174 0 gusting 4 16.7
2020-Feb-24 15:50 184 1 gusting 5 16.7
2020-Feb-24 15:46 159 0 gusting 5 16.1
2020-Feb-24 15:40 185 0 gusting 4 16.1
2020-Feb-24 15:35 181 0 gusting 3 16.1
2020-Feb-24 15:31 138 16.1
2020-Feb-24 15:25 191 1 gusting 4 16.1
2020-Feb-24 15:20 176 0 gusting 4 15.6
2020-Feb-24 15:16 160 15.6
2020-Feb-24 15:10 174 0 gusting 3 15.6
2020-Feb-24 15:05 151 15.6
2020-Feb-24 14:55 145 15.0
2020-Feb-24 14:50 165 1 gusting 4 15.0
2020-Feb-24 14:46 203 0 gusting 5 14.4
2020-Feb-24 14:40 091 14.4
2020-Feb-24 14:35 091 13.9
2020-Feb-24 14:32 091 13.9
2020-Feb-24 14:25 091 13.9
2020-Feb-24 14:20 091 13.3
2020-Feb-24 14:15 091 12.8
2020-Feb-24 14:10 091 12.8
2020-Feb-24 14:05 091 12.8
2020-Feb-24 13:55 006 0 gusting 3 12.2
2020-Feb-24 13:50 355 0 gusting 5 12.2
2020-Feb-24 13:45 326 2 gusting 5 12.2
2020-Feb-24 13:40 336 2 gusting 6 11.7
2020-Feb-24 13:35 331 2 gusting 3 11.7
2020-Feb-24 13:25 330 2 gusting 6 11.7
2020-Feb-24 13:15 327 2 gusting 5 11.1
2020-Feb-24 13:10 329 2 gusting 5 11.1
2020-Feb-24 13:05 313 1 gusting 3 11.1
2020-Feb-24 12:55 261 0 gusting 3 11.1
2020-Feb-24 12:50 261 1 gusting 3 10.6
2020-Feb-24 12:45 261 1 gusting 3 10.6
2020-Feb-24 12:36 261 0 gusting 4 10.6
2020-Feb-24 12:32 261 1 gusting 3 10.6
2020-Feb-24 12:26 261 10.6
2020-Feb-24 12:20 261 2 gusting 3 10.6
2020-Feb-24 12:16 261 1 gusting 3 10.6
2020-Feb-24 12:10 261 1 gusting 3 10.6
2020-Feb-24 12:05 261 0 gusting 3 10.6
2020-Feb-24 11:55 089 10.0
2020-Feb-24 11:50 089 10.0
2020-Feb-24 11:46 089 10.6
2020-Feb-24 11:40 089 10.6
2020-Feb-24 11:36 089 10.6
2020-Feb-24 11:31 089 10.6
2020-Feb-24 11:25 089 10.6
2020-Feb-24 11:21 089 10.6
2020-Feb-24 11:16 089 10.6
2020-Feb-24 11:10 089 10.6
2020-Feb-24 11:05 089 10.6
2020-Feb-24 10:55 261 10.6
2020-Feb-24 10:50 261 0 gusting 1 10.6
2020-Feb-24 10:45 261 0 gusting 2 10.6
2020-Feb-24 10:40 261 0 gusting 2 10.6
2020-Feb-24 10:35 261 1 gusting 3 10.6
2020-Feb-24 10:31 261 2 gusting 3 10.6
2020-Feb-24 10:25 261 2 gusting 3 10.6
2020-Feb-24 10:20 261 1 gusting 2 10.6
2020-Feb-24 10:15 261 1 gusting 2 10.6
2020-Feb-24 10:10 261 1 gusting 2 10.6
2020-Feb-24 10:05 261 0 gusting 2 10.6
2020-Feb-24 09:55 261 10.6
2020-Feb-24 09:50 261 10.6
2020-Feb-24 09:40 261 10.6
2020-Feb-24 09:35 261 10.6
2020-Feb-24 09:30 261 10.0
2020-Feb-24 09:25 261 0 gusting 2 10.0
2020-Feb-24 09:20 261 1 gusting 2 10.6
2020-Feb-24 09:10 261 0 gusting 2 10.0
2020-Feb-24 09:05 261 1 gusting 2 10.0
2020-Feb-24 08:55 264 1 gusting 2 10.0
2020-Feb-24 08:50 264 1 gusting 2 10.0
2020-Feb-24 08:40 265 0 gusting 1 10.6
2020-Feb-24 08:35 265 0 gusting 1 10.6
2020-Feb-24 08:31 265 10.0
2020-Feb-24 08:26 265 10.0
2020-Feb-24 08:20 265 10.0
2020-Feb-24 08:16 265 10.0
2020-Feb-24 08:10 265 0 gusting 1 10.0
2020-Feb-24 08:05 265 10.0
2020-Feb-24 07:55 089 10.0
2020-Feb-24 07:50 089 10.0
2020-Feb-24 07:46 089 10.0
2020-Feb-24 07:40 089 10.0
2020-Feb-24 07:35 089 10.0
2020-Feb-24 07:31 089 10.0
2020-Feb-24 07:25 089 10.0
2020-Feb-24 07:21 089 10.0
2020-Feb-24 07:15 089 10.0
2020-Feb-24 07:10 089 10.0
2020-Feb-24 07:05 089 10.0
2020-Feb-24 06:55 089 10.0
2020-Feb-24 06:50 089 10.0
2020-Feb-24 06:45 089 10.0
2020-Feb-24 06:40 089 10.0
2020-Feb-24 06:35 089 10.0
2020-Feb-24 06:31 089 10.0
2020-Feb-24 06:25 089 10.6
2020-Feb-24 06:20 089 10.6
2020-Feb-24 06:15 089 10.6
2020-Feb-24 06:10 089 10.6
2020-Feb-24 06:05 089 0 gusting 1 10.6
2020-Feb-24 05:55 320 0 gusting 1 10.6
2020-Feb-24 05:45 320 10.6
2020-Feb-24 05:40 320 10.6
2020-Feb-24 05:35 320 0 gusting 1 10.6
2020-Feb-24 05:25 321 10.6
2020-Feb-24 05:20 321 11.1
2020-Feb-24 05:15 321 11.1
2020-Feb-24 05:10 321 11.1
2020-Feb-24 05:05 321 0 gusting 1 11.1
2020-Feb-24 05:00 321 0 gusting 1 11.1
2020-Feb-24 04:55 321 0 gusting 1 11.1
2020-Feb-24 04:50 321 0 gusting 2 11.1
2020-Feb-24 04:40 320 1 gusting 5 11.1
2020-Feb-24 04:35 322 1 gusting 5 11.1
2020-Feb-24 04:25 321 3 gusting 6 11.1
2020-Feb-24 04:17 311 1 gusting 3 11.1
2020-Feb-24 04:10 314 1 gusting 3 11.1
2020-Feb-24 04:05 311 1 gusting 3 11.1
2020-Feb-24 04:01 089 11.1
2020-Feb-24 03:50 089 11.1
2020-Feb-24 03:47 089 11.1
2020-Feb-24 03:40 089 11.1
2020-Feb-24 03:35 089 11.1
2020-Feb-24 03:31 089 11.1
2020-Feb-24 03:25 089 11.1
2020-Feb-24 03:20 089 11.1
2020-Feb-24 03:16 089 11.1
2020-Feb-24 03:10 089 11.1
2020-Feb-24 03:05 089 11.7
2020-Feb-24 03:01 318 11.7
2020-Feb-24 02:50 318 0 gusting 1 11.7
2020-Feb-24 02:46 318 0 gusting 1 11.7
2020-Feb-24 02:40 318 11.7
2020-Feb-24 02:35 318 1 gusting 3 11.7
2020-Feb-24 02:31 315 1 gusting 3 11.7
2020-Feb-24 02:25 313 0 gusting 2 11.7
2020-Feb-24 02:20 307 0 gusting 2 11.7
2020-Feb-24 02:16 314 0 gusting 2 11.7
2020-Feb-24 02:11 313 0 gusting 2 11.7
2020-Feb-24 02:05 321 1 gusting 3 11.7
2020-Feb-24 02:00 321 2 gusting 5 11.7
2020-Feb-24 01:50 328 3 gusting 5 11.7
2020-Feb-24 01:46 328 2 gusting 5 11.7
2020-Feb-24 01:40 330 2 gusting 5 11.7
2020-Feb-24 01:35 330 2 gusting 3 11.7
2020-Feb-24 01:31 322 1 gusting 5 11.7
2020-Feb-24 01:30 317 1 gusting 5 11.7
2020-Feb-24 01:20 315 3 gusting 6 11.7
2020-Feb-24 01:15 322 2 gusting 5 11.7
2020-Feb-24 01:10 332 2 gusting 6 11.7
2020-Feb-24 01:05 318 3 gusting 6 11.7
2020-Feb-24 01:00 093 12.2
2020-Feb-24 00:55 093 12.2
2020-Feb-24 00:46 097 12.2
2020-Feb-24 00:40 097 12.2
2020-Feb-24 00:35 085 12.2
2020-Feb-24 00:30 085 12.2
2020-Feb-24 00:25 085 12.2
2020-Feb-24 00:20 085 12.2
2020-Feb-24 00:16 087 12.2
2020-Feb-24 00:10 065 0 gusting 3 12.2
2020-Feb-24 00:05 096 12.8
2020-Feb-24 00:01 093 12.8